Location: N�rnberg
(49.4489°N, 11.0797°E)
Time: 12:55:03
(UTC+01:00)

ISS - Pass Details

Date: 14 November 2017
Orbit: 401 x 407 km, 51.6° (Epoch: 18 November)

Event Time Altitude Azimuth Distance (km) Brightness Sun altitude
Exits shadow 04:12:52 11° 91° (E) 1,386 -0.3 -31.1°
Drops below altitude 10° 04:12:59 10° 91° (E) 1,431 -0.2 -31.1°
Sets 04:15:08 0° 95° (E) 2,314 1.1 -30.7°
